User: anonymous   Login
Location: Unspecified
(0.0000°N, 0.0000°E)
Time: 03:04:45
(UTC+00:00)
Language:

NOSS 8 (E) - Orbit

View from above orbital plane
View from above orbital plane
View from above satellite
View from above satellite

Ground track
Ground track

The orbit data is extracted from the following two-line orbital elements,

1 18009U 87043E   18109.87296646 0.00000800  00000-0  10473-3 0    06
2 18009  63.3130  40.6053 0882162  51.1496 308.8504 13.45048775    09
Epoch (UTC): 19 April 2018 20:57:04
Eccentricity: 0.0882162
inclination: 63.3130°
perigee height: 431 km
apogee height: 1749 km
right ascension of ascending node: 40.6053°
argument of perigee: 51.1496°
revolutions per day: 13.45048775
mean anomaly at epoch: 308.8504°
orbit number at epoch: 0

The dashed part of the orbit path shows where the satellite is in the earth's shadow,  

DLR